User: anonymous   Login
Location: Unspecified
(0.0000°N, 0.0000°E)
Time: 19:36:56
(UTC+00:00)
Language:

Cosmos 1538 - Orbit

View from above orbital plane
View from above orbital plane
View from above satellite
View from above satellite

Ground track
Ground track

The orbit data is extracted from the following two-line orbital elements,

1 14759U 84019A   18201.91634536 +.00000001 +00000-0 +96736-5 0  9994
2 14759 074.0395 161.8740 0022135 294.1305 065.7532 14.33592899798993
Epoch (UTC): 20 July 2018 21:59:32
Eccentricity: 0.0022135
inclination: 74.0395°
perigee height: 764 km
apogee height: 795 km
right ascension of ascending node: 161.8740°
argument of perigee: 294.1305°
revolutions per day: 14.33592899
mean anomaly at epoch: 65.7532°
orbit number at epoch: 79899

The dashed part of the orbit path shows where the satellite is in the earth's shadow,  

DLR